datetime,storage
1965-10-25,27965.0
1965-10-26,28171.0
1965-10-27,28171.0
1965-10-28,27761.0
1965-10-29,27557.0
1965-10-30,27354.0
1965-10-31,27151.0
1965-11-01,26608.0
1965-11-02,26071.0
1965-11-03,25619.0
1965-11-04,25075.0
1965-11-05,24442.0
1965-11-06,23780.0
1965-11-07,23112.0
1965-11-08,22490.0
1965-11-09,21825.0
1965-11-10,21137.0
1965-11-11,20462.0
1965-11-12,19632.0
1965-11-13,18873.0
1965-11-14,18242.0
1965-11-15,17893.0
1965-11-16,17704.0
1965-11-17,17641.0
1965-11-18,17673.0
1965-11-19,17782.0
1965-11-20,18019.0
1965-11-21,18242.0
1965-11-22,18242.0
1965-11-23,18290.0
1965-11-24,18726.0
1965-11-25,19151.0
1965-11-26,19548.0
1965-11-27,19349.0
1965-11-28,19101.0
1965-11-29,18840.0
1965-11-30,18840.0
1965-12-01,19167.0
1965-12-02,19682.0
1965-12-03,20290.0
1965-12-04,20772.0
1965-12-05,21137.0
1965-12-06,21470.0
1965-12-07,21736.0
1965-12-08,22039.0
1965-12-09,22381.0
1965-12-10,22708.0
1965-12-11,23093.0
1965-12-12,23556.0
1965-12-13,23949.0
1965-12-14,24308.0
1965-12-15,24498.0
1965-12-16,24575.0
1965-12-17,24594.0
1965-12-18,24537.0
1965-12-19,24460.0
1965-12-20,24422.0
1965-12-21,24460.0
1965-12-22,24404.0
1965-12-23,24442.0
1965-12-24,24518.0
1965-12-25,24518.0
1965-12-26,24404.0
1965-12-27,24365.0
1965-12-28,24270.0
1965-12-29,24214.0
1965-12-30,24176.0
1965-12-31,24252.0
1966-01-01,24346.0
1966-01-02,24498.0
1966-01-03,24480.0
1966-01-04,24308.0
1966-01-05,24232.0
1966-01-06,24270.0
1966-01-07,24518.0
1966-01-08,24862.0
1966-01-09,25114.0
1966-01-10,25210.0
1966-01-11,25075.0
1966-01-12,25114.0
1966-01-13,24997.0
1966-01-14,24843.0
1966-01-15,24708.0
1966-01-16,24460.0
1966-01-17,24119.0
1966-01-18,23743.0
1966-01-19,23389.0
1966-01-20,23130.0
1966-01-21,23075.0
1966-01-22,23038.0
1966-01-23,23038.0
1966-01-24,23093.0
1966-01-25,23167.0
1966-01-26,23278.0
1966-01-27,23389.0
1966-01-28,23500.0
1966-01-29,23538.0
1966-01-30,23631.0
1966-01-31,23725.0
1966-02-01,23855.0
1966-02-02,23987.0
1966-02-03,24100.0
1966-02-04,24232.0
1966-02-05,24327.0
1966-02-06,24460.0
1966-02-07,24575.0
1966-02-08,24633.0
1966-02-09,24633.0
1966-02-10,24613.0
1966-02-11,24633.0
1966-02-12,24594.0
1966-02-13,24518.0
1966-02-14,24308.0
1966-02-15,24176.0
1966-02-16,24044.0
1966-02-17,23931.0
1966-02-18,23949.0
1966-02-19,23968.0
1966-02-20,24062.0
1966-02-21,24157.0
1966-02-22,24252.0
1966-02-23,24346.0
1966-02-24,24442.0
1966-02-25,24537.0
1966-02-26,24613.0
1966-02-27,24651.0
1966-02-28,24708.0
1966-03-01,24805.0
1966-03-02,24824.0
1966-03-03,24785.0
1966-03-04,24651.0
1966-03-05,24460.0
1966-03-06,24232.0
1966-03-07,23987.0
1966-03-08,24006.0
1966-03-09,24138.0
1966-03-10,24270.0
1966-03-11,24327.0
1966-03-12,24365.0
1966-03-13,24460.0
1966-03-14,24920.0
1966-03-15,25171.0
1966-03-16,25345.0
1966-03-17,25443.0
1966-03-18,25462.0
1966-03-19,25384.0
1966-03-20,25345.0
1966-03-21,25327.0
1966-03-22,25249.0
1966-03-23,25075.0
1966-03-24,24959.0
1966-03-25,24920.0
1966-03-26,25016.0
1966-03-27,25171.0
1966-03-28,25482.0
1966-03-29,25716.0
1966-03-30,25854.0
1966-03-31,26508.0
1966-04-01,28439.0
1966-04-02,31810.0
1966-04-03,34987.0
1966-04-04,35443.0
1966-04-05,32114.0
1966-04-06,28274.0
1966-04-07,25639.0
1966-04-08,23260.0
1966-04-09,21154.0
1966-04-10,21207.0
1966-04-11,21453.0
1966-04-12,21084.0
1966-04-13,20427.0
1966-04-14,20325.0
1966-04-15,20945.0
1966-04-16,21629.0
1966-04-17,22599.0
1966-04-18,23538.0
1966-04-19,23911.0
1966-04-20,23167.0
1966-04-21,22472.0
1966-04-22,22273.0
1966-04-23,22381.0
1966-04-24,22708.0
1966-04-25,23001.0
1966-04-26,23278.0
1966-04-27,23481.0
1966-04-28,23519.0
1966-04-29,23296.0
1966-04-30,23112.0
1966-05-01,23019.0
1966-05-02,22982.0
1966-05-03,23149.0
1966-05-04,23500.0
1966-05-05,24082.0
1966-05-06,24594.0
1966-05-07,25776.0
1966-05-08,27842.0
1966-05-09,30325.0
1966-05-10,30368.0
1966-05-11,30453.0
1966-05-12,29628.0
1966-05-13,26032.0
1966-05-14,23038.0
1966-05-15,21897.0
1966-05-16,21914.0
1966-05-17,21878.0
1966-05-18,22021.0
1966-05-19,22309.0
1966-05-20,22111.0
1966-05-21,22635.0
1966-05-22,23038.0
1966-05-23,24289.0
1966-05-24,25992.0
1966-05-25,26012.0
1966-05-26,25736.0
1966-05-27,26012.0
1966-05-28,27333.0
1966-05-29,27986.0
1966-05-30,27618.0
1966-05-31,27455.0
1966-06-01,27232.0
1966-06-02,26568.0
1966-06-03,24997.0
1966-06-04,23223.0
1966-06-05,22255.0
1966-06-06,22417.0
1966-06-07,22708.0
1966-06-08,22763.0
1966-06-09,23093.0
1966-06-10,23278.0
1966-06-11,23204.0
1966-06-12,23444.0
1966-06-13,23481.0
1966-06-14,23001.0
1966-06-15,22635.0
1966-06-16,22490.0
1966-06-17,22399.0
1966-06-18,22417.0
1966-06-19,22946.0
1966-06-20,23818.0
1966-06-21,24978.0
1966-06-22,26528.0
1966-06-23,28501.0
1966-06-24,29228.0
1966-06-25,29396.0
1966-06-26,27842.0
1966-06-27,25462.0
1966-06-28,24613.0
1966-06-29,24176.0
1966-06-30,24024.0
1966-07-01,24138.0
1966-07-02,24651.0
1966-07-03,25171.0
1966-07-04,25249.0
1966-07-05,25075.0
1966-07-06,24785.0
1966-07-07,24671.0
1966-07-08,24498.0
1966-07-09,24138.0
1966-07-10,23836.0
1966-07-11,23911.0
1966-07-12,24100.0
1966-07-13,24157.0
1966-07-14,24195.0
1966-07-15,24195.0
1966-07-16,23987.0
1966-07-17,23799.0
1966-07-18,23855.0
1966-07-19,24062.0
1966-07-20,24270.0
1966-07-21,24289.0
1966-07-22,24346.0
1966-07-23,24384.0
1966-07-24,24252.0
1966-07-25,24119.0
1966-07-26,24214.0
1966-07-27,24480.0
1966-07-28,24651.0
1966-07-29,24633.0
1966-07-30,24556.0
1966-07-31,24480.0
1966-08-01,24404.0
1966-08-02,24498.0
1966-08-03,24651.0
1966-08-04,24805.0
1966-08-05,25036.0
1966-08-06,25190.0
1966-08-07,25249.0
1966-08-08,25171.0
1966-08-09,24959.0
1966-08-10,24671.0
1966-08-11,24480.0
1966-08-12,24422.0
1966-08-13,24327.0
1966-08-14,24270.0
1966-08-15,24252.0
1966-08-16,24308.0
1966-08-17,24365.0
1966-08-18,24289.0
1966-08-19,24270.0
1966-08-20,24327.0
1966-08-21,24442.0
1966-08-22,24460.0
1966-08-23,24384.0
1966-08-24,24365.0
1966-08-25,24308.0
1966-08-26,24308.0
1966-08-27,24404.0
1966-08-28,24498.0
1966-08-29,24498.0
1966-08-30,24460.0
1966-08-31,24442.0
1966-09-01,24422.0
1966-09-02,24480.0
1966-09-03,24920.0
1966-09-04,25307.0
1966-09-05,25541.0
1966-09-06,25501.0
1966-09-07,25462.0
1966-09-08,25404.0
1966-09-09,25229.0
1966-09-10,25094.0
1966-09-11,24978.0
1966-09-12,24901.0
1966-09-13,24862.0
1966-09-14,24997.0
1966-09-15,25171.0
1966-09-16,25345.0
1966-09-17,25541.0
1966-09-18,25697.0
1966-09-19,25697.0
1966-09-20,25561.0
1966-09-21,25384.0
1966-09-22,25249.0
1966-09-23,25152.0
1966-09-24,25075.0
1966-09-25,25094.0
1966-09-26,25055.0
1966-09-27,25016.0
1966-09-28,24997.0
1966-09-29,24959.0
1966-09-30,24920.0
1966-10-01,24920.0
1966-10-02,24939.0
1966-10-03,24959.0
1966-10-04,25036.0
1966-10-05,25132.0
1966-10-06,25210.0
1966-10-07,25152.0
1966-10-08,25132.0
1966-10-09,25114.0
1966-10-10,25114.0
1966-10-11,25152.0
1966-10-12,25190.0
1966-10-13,25345.0
1966-10-14,25561.0
1966-10-15,25736.0
1966-10-16,25913.0
1966-10-17,26170.0
1966-10-18,26448.0
1966-10-19,26688.0
1966-10-20,26808.0
1966-10-21,27050.0
1966-10-22,27557.0
1966-10-23,28028.0
1966-10-24,28501.0
1966-10-25,28979.0
1966-10-26,29480.0
1966-10-27,30007.0
1966-10-28,30538.0
1966-10-29,30967.0
1966-10-30,31376.0
1966-10-31,31788.0
1966-11-01,32289.0
1966-11-02,32794.0
1966-11-03,33259.0
1966-11-04,33726.0
1966-11-05,34151.0
1966-11-06,34602.0
1966-11-07,35078.0
1966-11-08,35535.0
1966-11-09,35970.0
1966-11-10,36385.0
1966-11-11,36849.0
1966-11-12,37339.0
1966-11-13,37808.0
1966-11-14,38115.0
1966-11-15,38067.0
1966-11-16,37926.0
1966-11-17,37761.0
1966-11-18,37573.0
1966-11-19,37363.0
1966-11-20,37175.0
1966-11-21,37035.0
1966-11-22,36989.0
1966-11-23,36942.0
1966-11-24,36873.0
1966-11-25,36873.0
1966-11-26,36989.0
1966-11-27,37198.0
1966-11-28,37503.0
1966-11-29,37879.0
1966-11-30,38280.0
1966-12-01,38731.0
1966-12-02,39113.0
1966-12-03,39400.0
1966-12-04,39616.0
1966-12-05,39713.0
1966-12-06,39664.0
1966-12-07,39568.0
1966-12-08,39281.0
1966-12-09,39185.0
1966-12-10,39233.0
1966-12-11,39281.0
1966-12-12,39352.0
1966-12-13,39449.0
1966-12-14,39497.0
1966-12-15,39424.0
1966-12-16,39257.0
1966-12-17,39113.0
1966-12-18,38922.0
1966-12-19,38755.0
1966-12-20,38612.0
1966-12-21,38542.0
1966-12-22,38589.0
1966-12-23,38707.0
1966-12-24,38851.0
1966-12-25,39017.0
1966-12-26,39233.0
1966-12-27,39424.0
1966-12-28,39664.0
1966-12-29,39906.0
1966-12-30,40196.0
1966-12-31,40511.0
1967-01-01,40804.0
1967-01-02,41072.0
1967-01-03,41317.0
1967-01-04,41587.0
1967-01-05,41858.0
1967-01-06,42130.0
1967-01-07,42353.0
1967-01-08,42602.0
1967-01-09,42876.0
1967-01-10,43176.0
1967-01-11,43502.0
1967-01-12,43753.0
1967-01-13,44031.0
1967-01-14,44258.0
1967-01-15,44538.0
1967-01-16,44893.0
1967-01-17,45149.0
1967-01-18,45405.0
1967-01-19,45636.0
1967-01-20,45893.0
1967-01-21,46126.0
1967-01-22,46384.0
1967-01-23,46643.0
1967-01-24,46904.0
1967-01-25,47164.0
1967-01-26,47477.0
1967-01-27,47819.0
1967-01-28,48186.0
1967-01-29,48584.0
1967-01-30,48981.0
1967-01-31,49407.0
1967-02-01,49781.0
1967-02-02,50156.0
1967-02-03,50506.0
1967-02-04,50857.0
1967-02-05,51236.0
1967-02-06,51644.0
1967-02-07,51999.0
1967-02-08,52355.0
1967-02-09,52684.0
1967-02-10,53042.0
1967-02-11,53429.0
1967-02-12,53789.0
1967-02-13,54150.0
1967-02-14,54512.0
1967-02-15,54931.0
1967-02-16,55324.0
1967-02-17,55747.0
1967-02-18,56143.0
1967-02-19,56597.0
1967-02-20,56996.0
1967-02-21,57367.0
1967-02-22,57739.0
1967-02-23,58141.0
1967-02-24,58544.0
1967-02-25,58978.0
1967-02-26,59442.0
1967-02-27,59880.0
1967-02-28,60318.0
1967-03-01,60875.0
1967-03-02,61463.0
1967-03-03,62027.0
1967-03-04,62651.0
1967-03-05,63278.0
1967-03-06,63848.0
1967-03-07,64420.0
1967-03-08,64965.0
1967-03-09,65542.0
1967-03-10,66151.0
1967-03-11,66764.0
1967-03-12,67410.0
1967-03-13,68029.0
1967-03-14,68649.0
1967-03-15,69241.0
1967-03-16,69835.0
1967-03-17,70401.0
1967-03-18,71000.0
1967-03-19,71602.0
1967-03-20,72238.0
1967-03-21,72844.0
1967-03-22,73453.0
1967-03-23,74129.0
1967-03-24,74841.0
1967-03-25,75522.0
1967-03-26,76239.0
1967-03-27,76928.0
1967-03-28,76666.0
1967-03-29,75197.0
1967-03-30,72844.0
1967-03-31,69742.0
1967-04-01,65877.0
1967-04-02,62711.0
1967-04-03,59937.0
1967-04-04,57309.0
1967-04-05,56199.0
1967-04-06,56768.0
1967-04-07,56825.0
1967-04-08,56454.0
1967-04-09,56143.0
1967-04-10,55889.0
1967-04-11,55747.0
1967-04-12,55747.0
1967-04-13,55410.0
1967-04-14,54094.0
1967-04-15,51617.0
1967-04-16,48690.0
1967-04-17,45662.0
1967-04-18,42552.0
1967-04-19,39497.0
1967-04-20,36431.0
1967-04-21,34129.0
1967-04-22,31139.0
1967-04-23,27741.0
1967-04-24,24613.0
1967-04-25,21294.0
1967-04-26,19333.0
1967-04-27,19233.0
1967-04-28,19200.0
1967-04-29,19167.0
1967-04-30,19020.0
1967-05-01,19134.0
1967-05-02,18937.0
1967-05-03,18726.0
1967-05-04,19085.0
1967-05-05,19850.0
1967-05-06,20789.0
1967-05-07,21523.0
1967-05-08,22075.0
1967-05-09,22057.0
1967-05-10,21861.0
1967-05-11,21259.0
1967-05-12,20188.0
1967-05-13,19036.0
1967-05-14,18921.0
1967-05-15,19833.0
1967-05-16,20496.0
1967-05-17,20411.0
1967-05-18,20070.0
1967-05-19,20053.0
1967-05-20,20393.0
1967-05-21,20911.0
1967-05-22,20290.0
1967-05-23,19300.0
1967-05-24,18775.0
1967-05-25,18179.0
1967-05-26,18483.0
1967-05-27,18290.0
1967-05-28,16462.0
1967-05-29,16045.0
1967-05-30,16687.0
1967-05-31,19548.0
1967-06-01,18419.0
1967-06-02,18905.0
1967-06-03,18710.0
1967-06-04,18921.0
1967-06-05,19985.0
1967-06-06,21383.0
1967-06-07,21119.0
1967-06-08,20650.0
1967-06-09,19615.0
1967-06-10,18210.0
1967-06-11,17500.0
1967-06-12,17516.0
1967-06-13,17376.0
1967-06-14,16581.0
1967-06-15,16793.0
1967-06-16,17877.0
1967-06-17,18596.0
1967-06-18,18775.0
1967-06-19,19466.0
1967-06-20,18661.0
1967-06-21,19020.0
1967-06-22,20427.0
1967-06-23,22690.0
1967-06-24,26828.0
1967-06-25,32641.0
1967-06-26,35078.0
1967-06-27,33928.0
1967-06-28,31896.0
1967-06-29,31290.0
1967-06-30,32971.0
1967-07-01,33726.0
1967-07-02,33615.0
1967-07-03,33259.0
1967-07-04,33347.0
1967-07-05,34106.0
1967-07-06,35970.0
1967-07-07,37456.0
1967-07-08,37903.0
1967-07-09,36942.0
1967-07-10,34286.0
1967-07-11,30774.0
1967-07-12,26329.0
1967-07-13,21986.0
1967-07-14,19918.0
1967-07-15,19615.0
1967-07-16,19499.0
1967-07-17,19200.0
1967-07-18,19167.0
1967-07-19,19036.0
1967-07-20,18467.0
1967-07-21,17751.0
1967-07-22,16402.0
1967-07-23,14864.0
1967-07-24,11935.0
1967-07-25,6263.0
1967-07-26,2879.0
1967-07-27,2669.0
1967-07-28,3300.0
1967-07-29,8831.0
1967-07-30,12677.0
1967-07-31,15404.0
1967-08-01,17861.0
1967-08-02,20172.0
1967-08-03,21914.0
1967-08-04,23481.0
1967-08-05,24901.0
1967-08-06,26150.0
1967-08-07,27273.0
1967-08-08,28315.0
1967-08-09,29418.0
1967-08-10,30518.0
1967-08-11,31312.0
1967-08-12,31831.0
1967-08-13,32114.0
1967-08-14,32377.0
1967-08-15,32530.0
1967-08-16,32530.0
1967-08-17,32312.0
1967-08-18,32838.0
1967-08-19,32421.0
1967-08-20,31918.0
1967-08-21,31354.0
1967-08-22,30710.0
1967-08-23,29902.0
1967-08-24,28999.0
1967-08-25,29250.0
1967-08-26,30029.0
1967-08-27,30496.0
1967-08-28,29606.0
1967-08-29,28708.0
1967-08-30,27700.0
1967-08-31,26688.0
1967-09-01,26329.0
1967-09-02,25561.0
1967-09-03,24690.0
1967-09-04,23780.0
1967-09-05,22800.0
1967-09-06,21843.0
1967-09-07,21207.0
1967-09-08,20155.0
1967-09-09,19003.0
1967-09-10,17988.0
1967-09-11,17751.0
1967-09-12,17751.0
1967-09-13,17782.0
1967-09-14,17956.0
1967-09-15,18115.0
1967-09-16,18194.0
1967-09-17,18226.0
1967-09-18,18339.0
1967-09-19,18596.0
1967-09-20,18661.0
1967-09-21,18515.0
1967-09-22,18258.0
1967-09-23,17940.0
1967-09-24,17610.0
1967-09-25,17469.0
1967-09-26,17516.0
1967-09-27,17563.0
1967-09-28,17625.0
1967-09-29,17688.0
1967-09-30,17735.0
1967-10-01,17766.0
1967-10-02,17909.0
1967-10-03,18147.0
1967-10-04,18290.0
1967-10-05,18339.0
1967-10-06,18451.0
1967-10-07,18710.0
1967-10-08,19466.0
1967-10-09,19799.0
1967-10-10,20053.0
1967-10-11,19985.0
1967-10-12,19699.0
1967-10-13,19399.0
1967-10-14,19020.0
1967-10-15,18242.0
1967-10-16,17610.0
1967-10-17,17516.0
1967-10-18,17657.0
1967-10-19,17814.0
1967-10-20,17909.0
1967-10-21,17988.0
1967-10-22,18051.0
1967-10-23,18067.0
1967-10-24,18083.0
1967-10-25,18130.0
1967-10-26,18210.0
1967-10-27,18290.0
1967-10-28,18339.0
1967-10-29,18386.0
1967-10-30,18386.0
1967-10-31,18403.0
1967-11-01,18467.0
1967-11-02,18483.0
1967-11-03,18467.0
1967-11-04,18371.0
1967-11-05,18258.0
1967-11-06,18386.0
1967-11-07,18677.0
1967-11-08,19020.0
1967-11-09,19399.0
1967-11-10,19850.0
1967-11-11,20359.0
1967-11-12,20789.0
1967-11-13,20668.0
1967-11-14,20104.0
1967-11-15,19415.0
1967-11-16,18742.0
1967-11-17,18099.0
1967-11-18,17579.0
1967-11-19,17175.0
1967-11-20,16900.0
1967-11-21,16809.0
1967-11-22,16702.0
1967-11-23,16536.0
1967-11-24,16748.0
1967-11-25,17052.0
1967-11-26,17222.0
1967-11-27,17206.0
1967-11-28,17392.0
1967-11-29,17909.0
1967-11-30,18500.0
1967-12-01,19020.0
1967-12-02,19466.0
1967-12-03,19900.0
1967-12-04,20393.0
1967-12-05,20841.0
1967-12-06,21207.0
1967-12-07,21541.0
1967-12-08,21914.0
1967-12-09,22309.0
1967-12-10,22763.0
1967-12-11,23260.0
1967-12-12,23743.0
1967-12-13,24195.0
1967-12-14,24747.0
1967-12-15,25307.0
1967-12-16,25913.0
1967-12-17,26448.0
1967-12-18,26989.0
1967-12-19,27517.0
1967-12-20,28069.0
1967-12-21,28626.0
1967-12-22,29166.0
1967-12-23,29796.0
1967-12-24,30453.0
1967-12-25,31096.0
1967-12-26,31657.0
1967-12-27,32224.0
1967-12-28,32750.0
1967-12-29,33347.0
1967-12-30,33905.0
1967-12-31,34354.0
1968-01-01,34942.0
1968-01-02,35557.0
1968-01-03,36108.0
1968-01-04,36640.0
1968-01-05,37198.0
1968-01-06,37761.0
1968-01-07,38280.0
1968-01-08,38826.0
1968-01-09,39328.0
1968-01-10,39857.0
1968-01-11,40439.0
1968-01-12,40901.0
1968-01-13,41317.0
1968-01-14,41759.0
1968-01-15,42204.0
1968-01-16,42701.0
1968-01-17,43176.0
1968-01-18,43602.0
1968-01-19,44031.0
1968-01-20,44461.0
1968-01-21,44944.0
1968-01-22,45380.0
1968-01-23,45842.0
1968-01-24,46359.0
1968-01-25,46904.0
1968-01-26,47399.0
1968-01-27,47924.0
1968-01-28,48398.0
1968-01-29,48848.0
1968-01-30,49301.0
1968-01-31,49808.0
1968-02-01,50318.0
1968-02-02,50830.0
1968-02-03,51290.0
1968-02-04,51807.0
1968-02-05,52381.0
1968-02-06,53013.0
1968-02-07,53649.0
1968-02-08,54233.0
1968-02-09,54820.0
1968-02-10,55437.0
1968-02-11,56058.0
1968-02-12,56654.0
1968-02-13,57252.0
1968-02-14,57824.0
1968-02-15,58314.0
1968-02-16,58659.0
1968-02-17,59065.0
1968-02-18,59530.0
1968-02-19,60054.0
1968-02-20,60611.0
1968-02-21,61169.0
1968-02-22,61730.0
1968-02-23,62294.0
1968-02-24,62799.0
1968-02-25,63338.0
1968-02-26,63848.0
1968-02-27,64389.0
1968-02-28,64904.0
1968-02-29,65389.0
1968-03-01,65906.0
1968-03-02,66550.0
1968-03-03,67102.0
1968-03-04,67626.0
1968-03-05,68213.0
1968-03-06,68805.0
1968-03-07,69366.0
1968-03-08,69961.0
1968-03-09,70590.0
1968-03-10,71127.0
1968-03-11,71634.0
1968-03-12,72142.0
1968-03-13,72716.0
1968-03-14,73229.0
1968-03-15,73935.0
1968-03-16,74613.0
1968-03-17,75295.0
1968-03-18,76076.0
1968-03-19,76992.0
1968-03-20,78014.0
1968-03-21,79209.0
1968-03-22,80376.0
1968-03-23,81453.0
1968-03-24,82640.0
1968-03-25,83289.0
1968-03-26,82742.0
1968-03-27,82197.0
1968-03-28,81486.0
1968-03-29,80948.0
1968-03-30,80712.0
1968-03-31,80779.0
1968-04-01,81960.0
1968-04-02,84147.0
1968-04-03,86473.0
1968-04-04,88696.0
1968-04-05,90666.0
1968-04-06,92514.0
1968-04-07,94202.0
1968-04-08,95609.0
1968-04-09,96881.0
1968-04-10,98161.0
1968-04-11,99871.0
1968-04-12,101945.0
1968-04-13,104164.0
1968-04-14,106172.0
1968-04-15,107803.0
1968-04-16,109328.0
1968-04-17,111027.0
1968-04-18,112416.0
1968-04-19,113730.0
1968-04-20,115013.0
1968-04-21,116220.0
1968-04-22,117350.0
1968-04-23,118444.0
1968-04-24,119545.0
1968-04-25,120696.0
1968-04-26,121767.0
1968-04-27,122846.0
1968-04-28,124017.0
1968-04-29,125240.0
1968-04-30,126561.0
1968-05-01,128067.0
1968-05-02,129992.0
1968-05-03,132299.0
1968-05-04,134727.0
1968-05-05,137281.0
1968-05-06,139630.0
1968-05-07,141482.0
1968-05-08,142774.0
1968-05-09,143638.0
1968-05-10,144555.0
1968-05-11,145768.0
1968-05-12,147136.0
1968-05-13,148609.0
1968-05-14,150490.0
1968-05-15,152338.0
1968-05-16,153748.0
1968-05-17,154555.0
1968-05-18,154404.0
1968-05-19,153999.0
1968-05-20,153292.0
1968-05-21,152490.0
1968-05-22,152137.0
1968-05-23,152289.0
1968-05-24,153696.0
1968-05-25,155062.0
1968-05-26,156028.0
1968-05-27,157050.0
1968-05-28,157870.0
1968-05-29,158749.0
1968-05-30,160201.0
1968-05-31,162719.0
1968-06-01,165644.0
1968-06-02,168726.0
1968-06-03,172799.0
1968-06-04,177874.0
1968-06-05,187599.0
1968-06-06,199238.0
1968-06-07,208710.0
1968-06-08,216176.0
1968-06-09,221679.0
1968-06-10,225462.0
1968-06-11,224860.0
1968-06-12,223002.0
1968-06-13,220231.0
1968-06-14,221282.0
1968-06-15,223666.0
1968-06-16,224929.0
1968-06-17,224263.0
1968-06-18,223932.0
1968-06-19,224662.0
1968-06-20,226195.0
1968-06-21,227669.0
1968-06-22,229549.0
1968-06-23,229818.0
1968-06-24,228944.0
1968-06-25,231368.0
1968-06-26,238087.0
1968-06-27,246545.0
1968-06-28,251197.0
1968-06-29,257640.0
1968-06-30,264438.0
1968-07-01,270450.0
1968-07-02,275143.0
1968-07-03,275724.0
1968-07-04,276670.0
1968-07-05,278123.0
1968-07-06,279509.0
1968-07-07,281044.0
1968-07-08,282876.0
1968-07-09,285157.0
1968-07-10,288038.0
1968-07-11,291154.0
1968-07-12,294436.0
1968-07-13,298187.0
1968-07-14,302110.0
1968-07-15,305982.0
1968-07-16,309720.0
1968-07-17,313402.0
1968-07-18,317182.0
1968-07-19,320282.0
1968-07-20,323082.0
1968-07-21,325503.0
1968-07-22,327776.0
1968-07-23,330290.0
1968-07-24,332419.0
1968-07-25,334239.0
1968-07-26,335904.0
1968-07-27,337578.0
1968-07-28,338932.0
1968-07-29,339969.0
1968-07-30,340930.0
1968-07-31,341649.0
1968-08-01,342369.0
1968-08-02,343172.0
1968-08-03,343733.0
1968-08-04,344377.0
1968-08-05,344620.0
1968-08-06,344699.0
1968-08-07,344620.0
1968-08-08,344860.0
1968-08-09,345265.0
1968-08-10,346796.0
1968-08-11,347360.0
1968-08-12,346713.0
1968-08-13,347762.0
1968-08-14,347762.0
1968-08-15,346713.0
1968-08-16,346958.0
1968-08-17,347605.0
1968-08-18,347119.0
1968-08-19,347281.0
1968-08-20,348086.0
1968-08-21,347683.0
1968-08-22,347198.0
1968-08-23,347683.0
1968-08-24,347683.0
1968-08-25,346229.0
1968-08-26,345426.0
1968-08-27,344781.0
1968-08-28,343576.0
1968-08-29,345104.0
1968-08-30,344216.0
1968-08-31,341649.0
1968-09-01,338371.0
1968-09-02,334715.0
1968-09-03,332419.0
1968-09-04,330605.0
1968-09-05,329663.0
1968-09-06,329348.0
1968-09-07,328876.0
1968-09-08,327933.0
1968-09-09,326677.0
1968-09-10,326206.0
1968-09-11,325114.0
1968-09-12,324721.0
1968-09-13,323706.0
1968-09-14,322770.0
1968-09-15,321914.0
1968-09-16,321291.0
1968-09-17,321059.0
1968-09-18,320748.0
1968-09-19,320437.0
1968-09-20,319895.0
1968-09-21,319039.0
1968-09-22,318263.0
1968-09-23,317568.0
1968-09-24,316794.0
1968-09-25,315870.0
1968-09-26,314635.0
1968-09-27,312478.0
1968-09-28,309645.0
1968-09-29,306893.0
1968-09-30,304234.0
1968-10-01,301807.0
1968-10-02,299091.0
1968-10-03,296536.0
1968-10-04,293764.0
1968-10-05,290933.0
1968-10-06,288110.0
1968-10-07,285157.0
1968-10-08,282364.0
1968-10-09,279291.0
1968-10-10,278632.0
1968-10-11,277103.0
1968-10-12,274347.0
1968-10-13,271314.0
1968-10-14,268297.0
1968-10-15,265580.0
1968-10-16,263087.0
1968-10-17,261313.0
1968-10-18,260746.0
1968-10-19,260321.0
1968-10-20,259828.0
1968-10-21,259472.0
1968-10-22,259331.0
1968-10-23,259121.0
1968-10-24,258907.0
1968-10-25,258769.0
1968-10-26,258628.0
1968-10-27,258414.0
1968-10-28,258628.0
1968-10-29,259048.0
1968-10-30,258979.0
1968-10-31,258769.0
1968-11-01,258487.0
1968-11-02,257991.0
1968-11-03,257991.0
1968-11-04,258063.0
1968-11-05,258063.0
1968-11-06,257640.0
1968-11-07,257286.0
1968-11-08,257218.0
1968-11-09,257286.0
1968-11-10,257218.0
1968-11-11,257146.0
1968-11-12,257359.0
1968-11-13,257427.0
1968-11-14,257500.0
1968-11-15,257286.0
1968-11-16,257218.0
1968-11-17,256936.0
1968-11-18,256305.0
1968-11-19,256092.0
1968-11-20,256936.0
1968-11-21,258205.0
1968-11-22,259403.0
1968-11-23,260605.0
1968-11-24,261739.0
1968-11-25,262092.0
1968-11-26,261241.0
1968-11-27,259897.0
1968-11-28,258487.0
1968-11-29,258205.0
1968-11-30,258838.0
1968-12-01,259755.0
1968-12-02,260535.0
1968-12-03,261099.0
1968-12-04,261597.0
1968-12-05,262092.0
1968-12-06,262588.0
1968-12-07,263087.0
1968-12-08,263514.0
1968-12-09,263868.0
1968-12-10,264223.0
1968-12-11,264651.0
1968-12-12,264936.0
1968-12-13,265152.0
1968-12-14,265364.0
1968-12-15,265650.0
1968-12-16,265866.0
1968-12-17,266079.0
1968-12-18,266291.0
1968-12-19,266434.0
1968-12-20,266508.0
1968-12-21,266651.0
1968-12-22,266794.0
1968-12-23,266864.0
1968-12-24,266720.0
1968-12-25,266434.0
1968-12-26,266079.0
1968-12-27,265793.0
1968-12-28,265437.0
1968-12-29,265152.0
1968-12-30,264866.0
1968-12-31,264508.0
1969-01-01,264365.0
1969-01-02,264296.0
1969-01-03,264153.0
1969-01-04,264011.0
1969-01-05,263799.0
1969-01-06,263583.0
1969-01-07,263299.0
1969-01-08,262945.0
1969-01-09,262518.0
1969-01-10,262092.0
1969-01-11,261666.0
1969-01-12,261241.0
1969-01-13,260746.0
1969-01-14,260463.0
1969-01-15,260180.0
1969-01-16,259828.0
1969-01-17,259472.0
1969-01-18,258979.0
1969-01-19,258556.0
1969-01-20,258205.0
1969-01-21,257850.0
1969-01-22,257500.0
1969-01-23,257218.0
1969-01-24,256936.0
1969-01-25,256655.0
1969-01-26,256233.0
1969-01-27,255670.0
1969-01-28,254900.0
1969-01-29,253919.0
1969-01-30,252662.0
1969-01-31,251197.0
1969-02-01,249318.0
1969-02-02,247373.0
1969-02-03,245438.0
1969-02-04,243437.0
1969-02-05,241580.0
1969-02-06,239455.0
1969-02-07,237201.0
1969-02-08,235091.0
1969-02-09,233058.0
1969-02-10,230897.0
1969-02-11,228607.0
1969-02-12,226329.0
1969-02-13,224065.0
1969-02-14,221879.0
1969-02-15,219637.0
1969-02-16,217413.0
1969-02-17,215202.0
1969-02-18,212938.0
1969-02-19,210627.0
1969-02-20,208394.0
1969-02-21,206239.0
1969-02-22,204096.0
1969-02-23,201845.0
1969-02-24,199794.0
1969-02-25,197697.0
1969-02-26,195673.0
1969-02-27,193663.0
1969-02-28,191608.0
1969-03-01,189803.0
1969-03-02,188014.0
1969-03-03,186294.0
1969-03-04,184586.0
1969-03-05,182833.0
1969-03-06,181149.0
1969-03-07,179476.0
1969-03-08,177815.0
1969-03-09,176054.0
1969-03-10,174308.0
1969-03-11,172799.0
1969-03-12,172357.0
1969-03-13,172634.0
1969-03-14,172799.0
1969-03-15,173022.0
1969-03-16,173245.0
1969-03-17,173526.0
1969-03-18,173859.0
1969-03-19,174083.0
1969-03-20,174308.0
1969-03-21,174477.0